GEFSMA_con_probscp_228.txt.gz
Probability
0 0 0 0 0 0 0 0 1 1 0 0 0 1 2 1 0 0 0 0 0 0 0 0 0 0 0 0 0 0 0 0 0 0 0 0 0 0 0 0 0 0 0
1 1 0 0 0 0 0 1 2 2 1 0 0 1 2 2 1 1 0 0 0 0 0 0 0 0 0 0 0 0 0 0 0 0 0 0 0 0 0 0 0 0 0
3 3 2 1 1 1 1 1 2 2 1 0 0 1 1 2 2 2 1 1 1 0 0 0 0 0 0 0 0 0 0 0 0 0 0 0 0 0 0 0 0 0 0
6 5 4 3 3 3 2 1 2 2 1 0 0 0 1 2 3 3 3 2 2 1 0 0 0 0 0 0 0 0 0 0 0 0 0 0 0 0 0 0 0 0 0
8 7 7 6 5 4 3 2 3 3 1 1 0 1 2 3 3 3 3 3 3 2 1 0 0 0 0 1 1 1 0 0 0 0 0 0 0 0 0 0 0 0 0
10 10 9 9 7 5 4 4 4 3 2 2 1 1 3 4 4 3 3 2 2 3 3 1 1 0 1 2 2 2 1 1 0 0 0 0 0 0 0 0 0 0 0
13 13 12 11 10 8 7 7 6 4 3 3 3 3 4 5 6 4 3 2 3 5 5 3 2 2 2 2 2 2 2 2 2 1 1 0 0 0 0 0 0 0 0
16 14 14 13 14 13 12 11 10 7 6 6 6 6 6 7 7 5 4 5 6 7 5 3 3 5 4 3 2 2 2 2 4 4 2 1 1 1 0 0 0 0 0
17 16 16 16 17 18 17 15 13 11 9 9 9 9 9 8 6 5 4 6 8 9 5 2 3 7 7 6 5 4 2 2 3 4 3 2 1 0 0 0 0 0 0
16 16 17 19 20 19 18 16 14 12 11 10 11 12 11 9 6 4 3 3 6 6 4 2 4 9 12 12 10 7 3 1 2 3 3 3 2 1 0 0 1 1 1
16 17 20 23 23 21 18 16 15 13 12 11 11 11 9 8 6 4 1 1 2 3 3 3 6 12 15 16 15 12 6 2 1 3 3 3 3 3 2 1 1 2 2
19 19 23 25 25 22 20 17 16 15 13 12 10 9 8 7 6 4 1 0 0 1 3 5 8 12 14 14 15 13 8 4 2 2 3 3 4 4 3 2 2 1 1
19 20 24 27 25 22 20 18 16 15 13 11 10 9 8 7 6 5 2 0 0 1 4 5 8 11 11 10 10 9 7 3 1 1 2 2 3 3 3 3 2 1 0
19 22 25 24 22 20 19 19 17 13 11 10 10 10 9 9 9 9 6 2 0 1 3 4 6 8 8 7 6 5 4 2 0 0 1 1 1 1 2 2 2 1 0
21 26 27 23 20 18 18 19 19 15 12 12 12 11 11 12 13 11 8 5 2 1 2 3 5 7 7 6 5 5 4 2 0 0 0 0 0 0 1 1 1 0 0
27 30 31 27 22 18 16 18 19 18 16 15 15 12 11 12 12 11 8 6 4 2 2 4 7 9 9 7 7 7 7 4 1 0 0 0 0 0 0 0 0 0 0
31 32 33 30 25 21 18 17 17 18 17 17 15 13 11 10 10 8 7 6 6 4 4 5 8 10 11 9 8 8 7 5 2 1 0 0 0 0 0 0 0 0 0
31 31 31 30 26 22 19 16 13 14 16 16 14 12 12 10 8 6 6 7 7 8 7 6 7 10 10 9 8 7 5 3 2 1 0 0 0 0 0 0 0 0 0
29 29 28 27 24 20 18 15 13 14 16 17 14 13 13 13 10 8 8 9 9 10 11 10 9 10 9 8 8 6 4 3 2 1 0 0 0 0 0 0 0 0 0
26 26 27 25 22 18 16 15 15 17 19 19 17 15 13 12 11 9 8 9 10 11 11 12 12 11 9 8 8 6 3 3 3 1 0 0 0 0 0 0 0 0 0
26 27 27 25 21 16 13 13 16 20 22 22 20 18 13 8 6 5 4 6 8 9 10 11 12 11 10 9 8 5 3 2 3 3 2 0 0 0 0 0 0 0 0
27 27 26 26 23 17 11 9 13 19 22 22 21 19 13 6 3 3 2 3 4 6 7 10 11 10 9 8 7 5 3 3 4 4 3 1 0 0 0 0 0 0 0
26 25 26 28 27 19 10 6 9 15 19 19 20 18 12 6 4 5 4 2 2 4 5 7 9 9 8 7 6 5 4 4 5 4 3 1 0 0 0 0 0 0 0
27 27 28 29 27 19 10 5 7 13 15 15 15 14 10 6 4 6 5 4 5 5 4 5 6 7 6 6 6 5 4 4 5 3 1 0 0 0 0 0 0 0 0
31 30 29 28 25 18 11 5 7 12 13 11 12 11 8 5 3 4 5 6 6 5 4 3 3 4 4 3 3 3 3 3 3 2 1 0 0 0 0 0 0 0 0
32 30 28 26 24 19 12 6 6 12 14 11 10 10 6 3 2 3 4 6 6 5 4 2 1 2 2 2 1 2 3 3 3 1 0 0 0 0 0 0 0 0 0

GEFSMA_con_probscp_234.txt.gz
Probability
0 1 1 1 0 0 0 0 0 0 0 0 0 0 0 0 0 0 1 1 1 0 0 0 0 0 0 0 0 0 0 0 0 0 0 0 0 0 0 0 0 0 0
1 2 2 2 1 0 0 0 0 0 0 0 0 0 0 0 0 0 0 1 1 1 0 0 0 0 0 0 0 0 0 0 0 0 0 0 0 0 0 0 0 0 0
3 3 3 2 1 0 0 0 0 0 0 0 0 0 0 0 0 0 0 0 1 1 0 0 0 0 0 0 0 0 0 0 0 0 0 0 0 0 0 0 0 0 0
3 3 3 3 1 1 0 0 0 0 0 0 0 0 0 0 0 0 0 0 0 0 0 0 0 0 0 0 0 0 0 0 0 0 0 0 0 0 0 0 0 0 0
3 3 3 3 3 2 1 0 0 0 0 0 0 0 0 0 0 0 0 0 0 0 0 0 0 0 0 0 0 0 0 0 0 0 0 0 0 0 0 0 0 0 0
4 3 3 3 3 3 1 0 0 0 0 0 0 0 0 0 0 0 0 0 0 0 0 0 0 0 0 0 0 1 1 1 0 0 0 0 0 0 0 0 0 0 0
5 4 3 3 3 3 2 1 0 0 0 0 0 0 0 0 0 0 0 0 0 0 0 0 0 0 0 0 0 1 2 2 1 1 0 0 0 0 0 0 0 0 0
7 6 5 5 5 4 4 2 1 1 1 0 0 0 0 0 0 0 0 0 0 0 0 0 0 0 0 0 0 1 3 3 3 2 1 1 0 0 0 0 0 0 0
9 8 8 8 8 7 6 4 2 2 2 1 0 0 0 0 0 0 0 0 0 0 0 0 0 0 0 0 0 1 2 3 4 3 3 2 1 0 0 0 0 0 0
9 8 8 9 10 9 8 6 4 3 3 2 1 1 0 0 0 0 0 0 0 0 0 0 0 0 0 0 0 0 1 1 2 3 3 3 1 1 0 0 0 0 0
9 8 8 9 11 10 8 8 6 4 3 3 3 2 1 0 0 0 0 0 0 0 0 0 0 0 0 0 0 0 0 0 1 1 2 2 2 2 1 1 1 0 0
9 8 8 9 10 10 8 8 6 4 3 3 3 3 2 0 0 0 0 0 0 0 0 0 0 0 0 0 0 0 0 0 0 0 1 1 2 2 2 2 2 1 0
7 8 8 8 9 9 9 8 6 3 2 2 2 2 1 0 0 0 1 1 0 0 0 0 0 0 0 0 0 0 0 0 0 0 0 1 1 1 2 3 3 2 1
5 7 8 8 8 9 9 8 5 2 1 1 1 1 0 0 0 1 2 2 1 0 0 0 0 0 0 0 0 0 0 0 0 0 0 1 0 0 1 2 2 2 2
4 5 7 7 8 8 7 6 3 1 0 0 0 0 0 0 1 2 3 3 2 1 0 0 0 0 0 0 0 0 1 0 0 0 0 0 0 0 0 1 1 1 2
5 6 6 8 8 7 5 4 2 0 0 0 0 0 0 1 2 3 3 3 3 2 0 0 0 0 0 0 0 0 0 0 0 0 0 0 0 0 0 0 0 0 1
7 8 8 9 8 7 4 2 1 0 0 0 0 0 0 1 2 3 3 3 3 1 0 0 0 0 0 0 0 0 0 0 0 0 0 0 0 0 0 0 0 0 0
9 9 9 8 7 5 3 1 1 1 1 1 2 1 1 0 1 1 2 2 2 1 0 0 0 0 0 0 0 0 0 0 0 0 0 0 0 0 0 0 0 0 0
9 9 8 8 6 4 3 2 2 3 3 4 5 4 3 1 0 0 1 1 1 0 0 0 0 0 0 0 0 0 0 0 0 0 0 0 0 0 0 0 0 0 0
9 9 9 8 7 5 3 3 4 4 5 6 6 5 4 3 1 0 0 0 0 0 0 0 0 0 0 0 0 0 0 0 0 0 0 0 0 0 0 0 0 0 0
11 10 10 9 7 5 4 4 5 6 6 5 4 4 4 3 2 0 0 0 0 0 0 0 0 0 0 0 0 0 0 0 0 0 0 0 0 0 0 0 0 0 0
14 12 11 10 8 7 6 5 5 6 5 4 4 4 4 3 1 0 0 0 0 0 0 1 1 2 1 0 0 0 0 0 0 0 0 0 0 0 0 0 0 0 0
16 13 12 12 10 8 6 4 4 4 4 3 4 5 5 3 1 1 1 1 0 0 0 1 2 3 2 1 0 0 0 0 0 0 0 0 0 0 0 0 0 0 0
16 15 14 13 10 7 4 3 3 3 3 4 5 7 7 4 3 2 2 2 1 1 1 1 3 3 3 2 1 0 0 0 0 0 0 0 0 0 0 0 0 0 0
15 16 14 12 9 6 4 3 3 3 3 4 6 8 6 4 3 3 3 3 3 2 2 2 2 3 3 2 1 0 0 0 0 0 0 0 0 0 0 0 0 0 0
16 15 13 11 9 7 5 4 3 3 3 4 6 7 6 4 3 3 3 3 3 3 3 3 2 2 2 2 1 0 0 0 0 0 0 0 0 0 0 0 0 0 0

GEFSMA_con_probscp_240.txt.gz
Probability
0 0 0 0 0 0 0 0 0 0 0 0 0 0 0 0 0 0 0 0 0 0 0 0 0 0 0 0 0 0 0 0 0 0 0 0 0 0 0 0 0 0 0
0 0 0 0 0 0 0 0 0 0 0 0 0 0 0 0 0 0 0 0 0 0 0 0 0 0 0 0 0 0 0 0 0 0 0 0 0 0 0 0 0 0 0
0 0 0 0 0 0 0 0 0 0 0 0 0 0 0 0 0 0 0 0 0 0 0 0 0 0 0 0 0 0 0 0 0 0 0 0 0 0 0 0 0 0 0
0 0 0 0 0 0 0 0 0 0 0 0 0 0 0 0 0 0 0 0 0 0 0 0 0 0 0 0 0 0 0 0 0 0 0 0 0 0 0 0 0 0 0
0 1 1 1 1 1 1 0 0 0 0 0 0 0 0 0 0 0 0 0 0 0 0 0 0 0 0 0 0 0 0 0 0 0 0 0 0 0 0 0 0 0 0
1 2 2 2 2 2 2 1 0 0 0 0 0 0 0 0 0 0 0 0 0 0 0 0 0 0 0 0 0 0 0 0 0 0 1 1 0 0 0 0 0 0 0
2 3 3 3 3 3 3 2 1 0 0 0 0 0 0 0 0 0 0 0 0 0 0 0 0 0 0 0 0 0 0 0 0 1 2 2 1 1 0 0 0 0 0
3 3 3 3 3 3 3 3 2 1 0 0 0 0 0 0 0 0 0 0 0 0 0 0 0 0 0 0 0 0 0 0 0 1 3 3 3 2 1 0 0 0 0
3 3 4 4 4 4 4 3 3 2 1 0 0 0 0 0 0 0 0 0 0 0 0 0 0 0 0 0 0 0 0 0 0 1 2 3 4 3 1 0 0 0 0
3 3 4 5 6 5 5 4 4 3 1 0 0 0 0 0 0 0 0 0 0 0 0 0 0 0 0 0 0 0 0 0 0 0 1 2 2 2 1 1 0 0 0
3 3 3 4 5 5 4 5 5 5 3 1 0 0 0 0 0 0 0 0 0 0 0 0 0 0 0 0 0 0 0 0 0 0 0 0 1 1 2 2 1 0 0
2 2 1 2 3 3 3 4 5 5 3 1 0 0 0 0 0 0 0 0 0 0 1 2 1 0 0 0 0 0 0 0 0 0 0 0 0 1 2 2 1 1 1
2 1 1 1 3 3 2 3 4 4 3 1 0 0 0 0 0 0 0 0 0 1 2 3 2 1 0 0 0 0 0 0 0 0 0 0 0 0 1 1 1 1 1
3 2 1 2 2 3 3 3 3 3 1 0 0 0 0 0 0 0 0 1 1 2 3 3 2 1 0 0 0 0 0 0 0 0 0 0 0 0 0 0 0 0 1
5 4 2 1 2 3 3 3 2 1 0 0 0 0 0 0 0 0 1 2 3 3 3 3 2 1 0 0 0 0 0 0 0 0 0 0 0 0 0 0 0 0 0
7 6 4 3 3 3 2 1 1 0 0 0 0 1 1 1 0 1 2 3 3 3 3 3 2 1 0 0 0 0 0 0 0 0 0 0 0 0 0 0 0 0 0
7 6 5 5 5 4 2 0 0 0 1 1 1 2 3 3 1 1 2 3 3 3 3 2 1 0 0 0 0 0 0 0 0 0 0 0 0 0 0 0 0 0 0
7 7 6 7 6 3 1 0 0 1 2 2 3 4 5 5 3 2 1 2 2 2 1 1 0 0 0 0 0 0 0 0 0 0 0 0 0 0 0 0 0 0 0
6 7 8 7 5 2 0 1 1 2 3 3 4 5 6 6 5 4 2 1 1 1 0 0 0 0 0 0 0 0 0 0 0 0 0 0 0 0 0 0 0 0 0
6 7 7 5 2 0 0 1 2 3 3 3 3 5 6 5 4 4 3 1 0 0 0 0 0 0 0 0 0 0 0 0 0 0 0 0 0 0 0 0 0 0 0
7 7 6 3 1 0 0 1 2 4 4 3 2 3 4 4 3 4 4 1 0 0 1 1 1 1 1 1 1 0 0 0 0 0 0 0 0 0 0 0 0 0 0
10 11 9 6 2 1 0 0 1 4 4 3 2 3 3 3 3 3 2 1 0 0 1 2 3 3 4 3 2 1 0 0 0 0 0 0 0 0 0 0 0 0 0
15 16 15 10 4 1 0 0 0 2 3 3 2 3 3 3 3 2 1 0 1 1 2 2 3 5 5 4 3 1 1 0 0 0 0 0 0 0 0 0 0 0 0
17 18 17 12 6 3 2 1 0 1 3 3 3 3 3 3 1 1 0 1 2 2 2 2 3 4 4 3 3 3 2 1 0 0 0 0 0 0 0 0 0 0 0
17 17 15 11 8 6 3 1 1 3 5 5 4 3 3 2 1 0 0 2 3 3 3 3 3 3 3 2 3 3 3 2 1 0 0 0 0 0 0 0 0 0 0
18 16 12 9 8 6 4 2 2 4 6 6 5 4 3 1 0 0 0 1 3 3 3 3 3 3 2 1 2 3 3 3 2 1 0 0 0 0 0 0 0 0 0

GEFSMA_con_probscp_246.txt.gz
Probability
0 0 1 1 1 1 2 2 2 1 1 1 1 0 0 0 0 0 1 3 3 1 0 0 0 0 0 0 0 0 0 0 0 0 0 0 0 0 0 0 0 0 0
0 1 2 2 2 1 2 3 3 2 2 2 2 1 0 0 0 0 1 2 2 1 0 0 0 0 0 0 0 0 0 0 0 0 0 0 0 0 0 0 0 0 0
2 2 3 3 3 3 3 3 3 3 3 3 3 2 1 0 0 0 0 1 1 0 0 0 0 0 0 0 0 0 0 0 0 0 0 0 0 0 0 0 0 0 0
4 4 3 3 3 3 3 3 3 3 3 3 3 3 2 1 1 0 0 0 0 0 0 0 0 0 0 1 1 1 0 0 0 0 0 0 0 0 0 0 0 0 0
6 4 3 3 3 3 3 3 3 3 3 3 3 3 3 3 2 1 0 0 0 0 0 0 0 0 0 1 1 1 0 0 0 0 0 0 0 0 0 0 0 0 0
5 5 4 3 3 3 4 4 4 4 4 4 4 4 4 3 3 2 2 1 1 0 0 0 0 0 0 0 1 1 0 0 0 0 0 0 0 0 0 0 0 0 0
4 4 3 3 3 4 5 6 6 5 5 5 6 5 4 4 4 5 5 4 2 0 0 0 0 0 0 0 0 0 0 0 0 0 0 0 0 0 0 0 0 0 0
4 3 3 3 4 5 6 7 7 7 7 7 7 5 3 5 6 6 5 4 2 0 1 1 1 2 1 1 1 0 0 0 0 0 0 0 0 0 0 1 1 0 0
5 4 4 4 5 6 6 6 7 8 9 8 7 5 4 5 6 5 4 3 1 0 1 2 2 3 3 3 2 1 0 0 0 0 0 1 1 0 1 1 1 0 0
6 6 5 6 6 6 5 4 4 7 9 9 8 7 6 5 5 5 4 3 1 1 1 1 2 3 4 4 4 1 0 0 0 1 1 1 1 1 1 1 1 1 1
6 5 5 5 5 5 4 2 3 6 9 9 9 8 6 5 4 4 3 3 3 3 2 2 3 3 4 4 3 1 1 0 0 0 0 1 1 1 1 2 2 2 2
4 4 4 4 4 3 2 1 2 5 8 9 8 6 4 3 3 3 3 3 4 5 5 5 5 4 4 4 2 2 1 0 0 0 0 0 0 0 1 2 2 2 2
5 5 5 5 4 3 1 2 4 6 8 7 6 4 3 2 3 3 3 3 4 6 7 7 6 5 4 3 2 1 1 0 0 0 0 0 0 0 0 1 1 1 1
7 7 8 8 7 5 4 4 6 8 8 7 4 3 3 2 3 5 6 6 6 7 8 8 7 6 4 2 1 0 0 0 0 0 0 0 0 0 0 0 0 0 0
9 9 10 10 9 8 7 7 7 8 8 7 5 4 4 4 4 7 10 11 11 11 10 9 9 9 6 3 0 0 1 0 0 0 0 0 0 0 0 0 0 0 0
9 9 9 9 9 8 9 9 8 7 7 7 6 5 5 5 6 8 10 13 16 15 11 10 11 11 8 3 1 0 1 1 1 0 0 0 0 0 0 0 0 0 0
8 7 6 6 6 6 8 9 8 7 7 6 5 5 6 7 8 9 10 12 15 15 11 10 11 10 6 4 1 1 1 1 1 0 0 0 0 0 0 0 0 0 0
7 6 5 5 5 5 7 9 8 9 9 6 4 5 8 10 11 12 12 13 13 12 9 9 9 8 5 3 2 2 2 2 1 0 0 0 0 0 0 0 0 0 0
5 4 5 6 6 6 8 9 10 11 10 7 5 8 11 13 15 16 15 14 12 10 9 9 9 8 6 3 3 4 4 3 1 0 0 0 0 0 0 0 0 0 0
5 6 7 9 9 9 10 11 11 11 9 7 7 10 12 13 15 16 15 14 12 11 11 12 11 9 7 5 5 5 5 4 2 2 2 1 1 0 0 0 0 0 0
10 10 12 13 12 11 10 10 10 9 7 6 7 11 12 12 12 11 11 10 10 10 12 14 13 11 10 8 6 5 4 5 6 6 6 4 2 1 0 0 0 0 0
16 16 16 16 14 12 10 7 7 8 9 8 9 12 12 10 9 7 6 6 6 7 10 13 14 13 12 10 7 5 6 8 9 9 9 7 5 2 1 0 0 0 0
23 22 21 19 18 16 10 5 4 7 11 12 13 14 13 11 9 7 6 5 4 3 5 9 12 12 12 10 8 7 8 9 9 9 9 8 7 5 3 1 0 0 0
29 28 26 26 25 20 11 4 3 8 14 15 14 14 14 11 9 8 9 8 6 3 3 5 7 8 8 7 6 5 6 7 7 8 8 8 7 5 4 2 1 0 0
29 29 28 29 29 22 10 3 4 11 16 15 13 11 12 10 8 7 9 9 7 4 2 2 2 3 3 3 3 4 6 6 6 7 7 7 6 4 4 4 2 0 0
27 27 27 27 27 21 10 3 4 11 17 15 11 9 9 8 6 6 9 8 6 5 3 1 0 0 0 0 1 3 6 6 6 6 7 6 5 4 4 4 3 1 0

GEFSMA_con_probscp_252.txt.gz
Probability
10 9 7 7 7 6 6 6 9 10 11 11 10 9 7 5 5 5 6 7 9 9 9 7 5 4 3 2 1 0 0 0 0 0 0 0 0 0 0 0 0 0 0
9 9 8 7 8 7 8 10 11 12 13 12 11 11 9 7 6 6 7 6 7 8 8 6 5 4 4 2 0 0 0 0 0 0 0 0 0 0 0 0 0 0 0
9 8 8 9 9 10 12 14 14 15 14 13 12 12 11 9 8 8 9 7 4 5 5 4 4 4 4 2 0 0 0 0 0 0 0 0 0 0 0 0 0 0 0
9 8 8 9 10 11 14 16 16 15 15 13 12 11 12 11 10 10 11 9 5 4 3 3 4 4 3 1 0 0 0 0 0 0 0 0 0 0 0 0 0 0 0
9 8 8 10 11 11 13 14 14 15 15 13 12 11 12 12 12 12 12 11 9 7 5 4 4 3 1 0 0 0 0 0 0 0 0 0 0 0 0 0 0 0 0
9 8 8 10 11 11 11 11 13 15 15 13 12 11 11 12 13 13 12 12 11 11 9 7 5 3 2 1 1 1 0 0 0 0 0 0 0 0 0 0 0 0 0
9 7 7 9 11 11 11 11 13 14 14 13 11 9 9 10 12 11 10 10 11 11 10 10 9 7 4 2 2 3 1 0 0 0 0 0 0 0 0 0 0 0 0
10 8 7 8 9 10 12 13 14 15 14 12 11 9 8 8 9 8 8 10 11 11 10 10 12 12 7 4 3 3 1 0 0 0 1 1 0 0 0 0 0 0 0
12 10 9 9 9 10 12 13 14 14 14 13 11 9 7 7 7 7 8 10 12 11 9 8 12 13 9 6 5 4 2 1 1 2 3 2 1 0 0 0 0 0 0
13 12 11 12 12 12 13 12 11 12 13 12 10 9 9 8 7 6 8 9 10 10 9 7 10 11 8 7 7 5 3 2 2 4 4 3 1 0 0 0 0 0 0
15 14 14 16 15 14 12 11 11 12 11 9 8 8 9 9 7 6 7 8 8 9 10 10 10 9 8 8 6 4 2 3 3 3 3 3 2 0 0 0 0 0 0
15 15 16 18 18 15 13 13 13 12 9 7 6 6 7 8 8 8 9 10 8 8 10 12 11 9 9 8 6 3 1 2 2 1 1 1 1 0 0 0 0 0 0
14 14 15 18 20 17 16 16 15 11 9 8 6 6 7 9 10 10 12 12 9 6 8 11 11 11 10 8 5 3 1 1 1 0 0 0 0 0 0 0 0 0 0
11 11 14 17 17 15 15 17 15 11 10 10 8 8 9 11 11 11 13 13 10 7 8 10 11 12 12 10 6 4 3 1 0 0 0 0 0 0 0 0 0 0 0
11 12 14 15 13 11 11 14 14 12 12 12 11 11 12 13 12 12 13 13 12 11 10 10 10 12 14 11 7 6 6 2 0 0 0 0 0 0 0 0 0 0 0
14 15 15 12 10 9 9 11 12 13 14 14 14 14 15 15 14 13 13 14 14 14 14 12 10 11 13 11 9 10 9 5 1 0 0 0 0 0 0 0 0 0 0
17 17 16 13 11 10 10 10 11 13 14 15 15 15 15 16 16 15 14 14 15 16 15 12 11 12 13 11 9 9 9 6 2 1 0 0 0 0 0 0 0 0 0
18 18 17 15 14 12 10 11 12 13 16 16 15 13 13 16 19 17 13 14 15 16 13 10 10 12 12 10 7 6 6 4 3 2 1 0 0 0 0 0 0 0 0
21 20 19 18 18 15 14 15 16 18 20 20 18 16 15 18 21 19 14 14 15 14 11 9 9 10 10 9 6 5 4 4 4 3 1 0 0 0 0 0 0 0 0
26 24 21 21 20 19 19 19 20 22 24 24 24 21 19 19 20 18 15 14 13 12 10 9 9 9 9 7 6 5 4 4 5 5 3 1 1 0 0 0 0 0 0
28 26 24 22 23 22 20 20 21 22 24 26 25 23 20 18 17 15 13 12 11 12 11 9 8 9 8 7 5 3 3 3 4 5 4 3 3 2 0 0 0 0 0
28 27 26 26 25 22 19 18 19 21 24 25 24 21 19 17 16 13 10 8 8 9 9 8 6 8 9 8 4 2 1 2 3 4 4 4 4 4 2 1 1 0 0
30 29 29 30 27 23 19 16 17 20 24 25 23 20 19 18 16 13 10 7 6 6 6 4 4 6 8 9 5 2 1 1 2 3 3 3 4 5 5 4 2 1 0
32 32 32 32 30 24 17 13 14 20 24 24 22 22 22 20 17 14 14 14 12 9 6 3 2 3 5 7 5 2 1 1 1 2 2 3 3 4 5 5 4 1 0
34 35 35 34 32 26 16 9 12 20 24 23 22 22 22 19 14 12 15 19 18 13 8 3 1 1 2 3 2 1 1 0 0 1 1 1 2 3 4 4 3 1 0
37 37 36 35 34 28 16 7 11 21 25 24 23 21 19 16 11 10 15 20 19 13 8 4 1 1 1 1 1 0 0 0 0 0 0 0 1 3 3 3 3 2 1